Litchfield, IL

11:13 AM CDT on August 23, 2017 (GMT -0500)
Litchfield

Weather History for K3LF - November, 2013

Change the Weather History Date:

Wednesday, November 20, 2013

  Actual Average (KALN) Record (KALN)
Temperature  
Mean Temperature 38 °F -  
Max Temperature 46 °F 51 °F 73 °F (2003)
Min Temperature 30 °F 35 °F 17 °F (2014)
Degree Days  
Heating Degree Days 27    
Moisture  
Dew Point 32 °F    
Average Humidity 79    
Maximum Humidity 87    
Minimum Humidity 67    
Precipitation  
Precipitation 0.00 in - - ()
Sea Level Pressure  
Sea Level Pressure 30.14 in    
Wind  
Wind Speed 6 mph (SE)    
Max Wind Speed 14 mph    
Max Gust Speed 22 mph    
Visibility 10 miles    
Events Rain , Thunderstorm    
Averages and records for this station are not official NWS values.
T = Trace of Precipitation, MM = Missing Value Source: NWS Daily Summary

Daily Weather History Graph

Daily Weather History Graph

Search for Another Location

Airport or City:

Trip Planner

Search our weather history database for the weather conditions in past years. The results will help you decide how hot, cold, wet, or windy it might be!

Date:

Astronomy

Nov. 20, 2013 Rise Set
Actual Time 6:47 AM CST 4:40 PM CST
Civil Twilight 6:18 AM CST 5:09 PM CST
Nautical Twilight 5:46 AM CST 5:42 PM CST
Astronomical Twilight 5:14 AM CST 6:14 PM CST
Moon 7:23 PM CST (11/20) 9:12 AM CST (11/20)
Length of Visible Light 10h 50m
Length of Day
9h 52m
Waning Gibbous, 91% of the Moon is Illuminated
Nov 20
Waning Gibbous
Nov 25
Last Quarter
Dec 2
New
Dec 9
First Quarter
Dec 17
Full

Hourly Weather History & Observations

Time (CST) Temp. Windchill Dew Point Humidity Pressure Visibility Wind Dir Wind Speed Gust Speed Precip Events Conditions
12:15 AM 33.6 °F 26.8 °F 27.3 °F 78% 30.23 in 10.0 mi SE 8.1 mph - N/A   Clear
12:35 AM 32.9 °F 25.9 °F 27.3 °F 80% 30.23 in 10.0 mi SE 8.1 mph - N/A   Clear
12:55 AM 32.2 °F 25.8 °F 27.3 °F 82% 30.23 in 10.0 mi SE 6.9 mph - N/A   Clear
1:15 AM 32.0 °F 25.6 °F 27.1 °F 82% 30.22 in 10.0 mi SE 6.9 mph - N/A   Clear
1:35 AM 32.0 °F 24.8 °F 27.3 °F 83% 30.22 in 10.0 mi SE 8.1 mph - N/A   Clear
1:55 AM 32.0 °F 24.2 °F 27.3 °F 83% 30.22 in 10.0 mi SE 9.2 mph - N/A   Clear
2:15 AM 32.0 °F 25.6 °F 27.3 °F 83% 30.23 in 10.0 mi SE 6.9 mph - N/A   Clear
2:35 AM 31.6 °F 23.7 °F 27.5 °F 85% 30.22 in 10.0 mi SE 9.2 mph - N/A   Clear
2:55 AM 31.8 °F 23.3 °F 27.5 °F 84% 30.21 in 10.0 mi ESE 10.4 mph - N/A   Clear
3:15 AM 32.2 °F 25.0 °F 27.9 °F 84% 30.22 in 10.0 mi SE 8.1 mph - N/A   Clear
3:35 AM 32.4 °F 24.6 °F 28.2 °F 85% 30.22 in 10.0 mi SE 9.2 mph - N/A   Clear
3:55 AM 32.4 °F 23.5 °F 28.4 °F 85% 30.21 in 10.0 mi ESE 11.5 mph - N/A   Clear
4:15 AM 32.0 °F 24.2 °F 28.0 °F 85% 30.21 in 10.0 mi SE 9.2 mph - N/A   Clear
4:35 AM 32.0 °F 23.6 °F 27.9 °F 85% 30.20 in 10.0 mi SE 10.4 mph - N/A   Clear
4:55 AM 32.0 °F 24.2 °F 27.5 °F 83% 30.20 in 10.0 mi SE 9.2 mph - N/A   Clear
5:15 AM 31.6 °F 23.1 °F 27.7 °F 85% 30.20 in 10.0 mi SE 10.4 mph - N/A   Clear
5:35 AM 31.5 °F 22.3 °F 27.5 °F 85% 30.19 in 10.0 mi SE 11.5 mph - N/A   Clear
5:55 AM 31.5 °F 24.2 °F 27.5 °F 85% 30.18 in 10.0 mi SE 8.1 mph - N/A   Clear
6:15 AM 30.9 °F - 27.5 °F 87% 30.17 in 10.0 mi Calm Calm - N/A   Clear
6:35 AM 30.7 °F - 27.3 °F 87% 30.18 in 10.0 mi Calm Calm - N/A   Clear
6:55 AM 30.9 °F - 27.5 °F 87% 30.19 in 10.0 mi Calm Calm - N/A   Clear
7:15 AM 31.1 °F - 27.5 °F 87% 30.19 in 10.0 mi Calm Calm - N/A   Clear
7:35 AM 31.6 °F - 28.0 °F 87% 30.19 in 10.0 mi Calm Calm - N/A   Clear
7:55 AM 32.7 °F - 28.6 °F 85% 30.19 in 10.0 mi Calm Calm - N/A   Clear
8:15 AM 33.1 °F 23.4 °F 28.8 °F 84% 30.19 in 10.0 mi SE 13.8 mph - N/A   Clear
8:35 AM 33.8 °F 25.3 °F 29.1 °F 83% 30.19 in 10.0 mi SE 11.5 mph 16.1 mph N/A   Clear
8:55 AM 35.1 °F 26.4 °F 29.3 °F 80% 30.19 in 10.0 mi SE 12.7 mph 16.1 mph N/A   Scattered Clouds
9:15 AM 35.4 °F 26.4 °F 29.3 °F 78% 30.18 in 10.0 mi SE 13.8 mph - N/A   Scattered Clouds
9:35 AM 36.5 °F - 30.0 °F 77% 30.18 in 10.0 mi Calm Calm - N/A   Clear
9:55 AM 37.8 °F 29.8 °F 30.7 °F 76% 30.19 in 10.0 mi SSE 12.7 mph - N/A   Clear
10:15 AM 38.3 °F - 30.6 °F 74% 30.18 in 10.0 mi Calm Calm - N/A   Clear
10:35 AM 39.2 °F - 31.1 °F 73% 30.18 in 10.0 mi Calm Calm - N/A   Clear
10:55 AM 39.2 °F - 31.3 °F 73% 30.16 in 10.0 mi Calm Calm - N/A   Scattered Clouds
11:15 AM 40.5 °F - 31.8 °F 71% 30.16 in 10.0 mi Calm Calm - N/A   Scattered Clouds
11:35 AM 40.3 °F - 31.5 °F 71% 30.15 in 10.0 mi Calm Calm - N/A   Scattered Clouds
11:55 AM 41.2 °F - 32.0 °F 70% 30.16 in 10.0 mi Calm Calm - N/A   Scattered Clouds
12:15 PM 41.5 °F - 32.0 °F 69% 30.15 in 10.0 mi Calm Calm - N/A   Clear
12:35 PM 42.1 °F - 32.2 °F 68% 30.13 in 10.0 mi Calm Calm - N/A   Scattered Clouds
12:55 PM 42.4 °F - 32.0 °F 67% 30.13 in 10.0 mi Calm Calm - N/A   Scattered Clouds
1:15 PM 42.3 °F - 32.0 °F 67% 30.12 in 10.0 mi Calm Calm - N/A   Scattered Clouds
1:35 PM 42.1 °F - 33.6 °F 72% 30.11 in 10.0 mi Calm Calm - N/A Rain Light Rain
1:55 PM 41.5 °F - 34.7 °F 77% 30.11 in 10.0 mi Calm Calm - N/A Rain Light Rain
2:15 PM 41.2 °F - 35.4 °F 80% 30.11 in 7.0 mi Calm Calm - N/A Rain Light Rain
2:35 PM 41.5 °F - 36.5 °F 82% 30.09 in 10.0 mi Calm Calm - N/A   Overcast
2:55 PM 41.5 °F - 36.5 °F 82% 30.08 in 10.0 mi Calm Calm - N/A   Mostly Cloudy
3:15 PM 41.2 °F - 36.3 °F 83% 30.08 in 10.0 mi Calm Calm - N/A   Overcast
3:35 PM 41.0 °F - 36.5 °F 84% 30.09 in 10.0 mi Calm Calm - N/A Rain Light Rain
3:55 PM 41.0 °F - 36.7 °F 85% 30.09 in 10.0 mi Calm Calm - N/A   Overcast
4:15 PM 41.0 °F 34.7 °F 36.3 °F 83% 30.07 in 10.0 mi ESE 10.4 mph - N/A   Overcast
4:35 PM 41.0 °F 35.2 °F 36.5 °F 84% 30.07 in 10.0 mi ESE 9.2 mph - N/A   Overcast
4:55 PM 41.2 °F 34.5 °F 36.5 °F 83% 30.06 in 10.0 mi ESE 11.5 mph - N/A   Overcast
5:15 PM 41.9 °F 35.0 °F 36.0 °F 79% 30.06 in 10.0 mi ESE 12.7 mph 21.9 mph N/A   Overcast
5:35 PM 42.1 °F 36.1 °F 35.6 °F 78% 30.06 in 10.0 mi ESE 10.4 mph - N/A   Overcast
5:55 PM 42.3 °F 35.9 °F 35.6 °F 77% 30.08 in 10.0 mi SE 11.5 mph 17.3 mph N/A   Mostly Cloudy
6:15 PM 42.4 °F 36.5 °F 35.6 °F 77% 30.08 in 10.0 mi SE 10.4 mph 17.3 mph N/A   Overcast
6:35 PM 42.8 °F - 35.1 °F 74% 30.08 in 10.0 mi Calm Calm - N/A Thunderstorm Overcast
6:55 PM 43.0 °F - 35.2 °F 74% 30.08 in 10.0 mi Calm Calm - N/A   Overcast
7:15 PM 43.2 °F 36.2 °F 35.4 °F 74% 30.08 in 10.0 mi SE 13.8 mph - N/A   Overcast
7:35 PM 43.2 °F - 36.0 °F 76% 30.08 in 10.0 mi Calm Calm - N/A   Overcast
7:55 PM 43.7 °F 38.1 °F 36.3 °F 75% 30.07 in 10.0 mi SE 10.4 mph 17.3 mph N/A   Overcast
8:15 PM 44.1 °F 38.1 °F 36.5 °F 75% 30.07 in 10.0 mi SE 11.5 mph 18.4 mph N/A   Overcast
8:35 PM 44.6 °F 42.2 °F 36.5 °F 73% 30.07 in 10.0 mi SE 4.6 mph 17.3 mph N/A   Overcast
8:55 PM 44.6 °F - 36.5 °F 73% 30.08 in 10.0 mi Calm Calm - N/A   Overcast
9:15 PM 44.6 °F - 36.9 °F 74% 30.08 in 10.0 mi Calm Calm - N/A   Overcast
9:35 PM 44.8 °F - 36.9 °F 74% 30.08 in 10.0 mi Calm Calm - N/A   Overcast
9:55 PM 45.1 °F - 36.9 °F 73% 30.08 in 10.0 mi Calm Calm - N/A   Overcast
10:15 PM 45.5 °F - 37.4 °F 73% 30.09 in 10.0 mi Calm Calm - N/A   Overcast
10:35 PM 45.5 °F - 37.4 °F 73% 30.08 in 10.0 mi Calm Calm - N/A   Overcast
10:55 PM 46.0 °F - 37.4 °F 72% 30.08 in 10.0 mi Calm Calm - N/A   Overcast
11:15 PM 46.0 °F - 37.6 °F 72% 30.08 in 10.0 mi Calm Calm - N/A   Overcast
11:35 PM 46.8 °F - 37.6 °F 70% 30.08 in 10.0 mi Calm Calm - N/A   Overcast
11:55 PM 46.8 °F - 38.3 °F 72% 30.10 in 10.0 mi Calm Calm - N/A   Overcast